Location: ??
(35.5052°N, 139.7262°E)
Time: 02:56:30
(UTC+00:00)

Lacrosse 4 Rocket - Visible Passes

Search period start: 23 October 2021 00:00
Search period end: 02 November 2021 00:00
Orbit: 540 x 616 km, 68.0° (Epoch: 22 October)

Date Brightness Start Highest point End Pass type
(mag) Time Alt. Az. Time Alt. Az. Time Alt. Az.
23 Oct 1.9 09:27:25 10° N 09:31:14 42° NE 09:31:14 42° NE visible
23 Oct 4.7 11:07:23 10° WNW 11:07:35 11° WNW 11:07:35 11° WNW visible
24 Oct 1.3 09:31:36 10° NNW 09:35:57 71° ENE 09:36:38 59° ESE visible
25 Oct 1.7 09:35:56 10° NNW 09:40:17 70° WSW 09:42:28 29° S visible
26 Oct 2.7 09:40:27 10° NW 09:44:34 42° WSW 09:48:45 10° S visible
27 Oct 3.7 09:45:11 10° NW 09:48:49 26° WSW 09:52:28 10° SSW visible
28 Oct 2.0 08:10:34 10° N 08:14:42 40° ENE 08:18:52 10° SE visible
28 Oct 4.5 09:50:19 10° WNW 09:53:00 16° WSW 09:55:42 10° SW visible
29 Oct 1.5 08:14:44 10° NNW 08:19:05 66° ENE 08:23:29 10° SSE visible
30 Oct 1.8 08:19:02 10° NNW 08:23:25 76° WSW 08:27:50 10° SSE visible
31 Oct 2.8 08:23:31 10° NW 08:27:42 45° WSW 08:31:56 10° S visible
01 Nov 4.0 08:28:12 10° NW 08:31:57 28° WSW 08:35:42 10° SSW visible
